Date String (YYYY-MM-DD hh:mm:ss) UTC,Instrument flags,absolute air pressure of the measurement (hPa),sample flow rate (lpm),inlet stack bypass flow (lpm),air temperature of the measurement (°C),ambient temperature measured by the external sensor (°C),aerosol sample conditioner tube jacket temperature (°C),OPC LED temperature (°C),internal box temperature (°C),relative humidity of the measurement (%),span deviation,mass concentration of particles derived from Lorenz-Mie calculation of OPC scattering (μg/m³),mass concentration of particles derived from Lorenz-Mie calculation of OPC scattering (μg/m³),mass concentration of particles derived from Lorenz-Mie calculation of OPC scattering (μg/m³)
DateTimeUTC,F1_M11,P_M11,Q1_M11,Q2_M11,T1_M11,T2_M11,T3_M11,T4_M11,T5_M11,U1_M11,ZSPAN_M11,X0_M11,X2_M11,X1_M11
2024-01-28 13:00:00,SystemResetWarning,0835.9,5.00,000.00,020.5,019.6,000.0,028.8,021.8,10.1,0000.0,0006.35,0002.53,0002.09
2024-01-28 13:01:00,SystemResetWarning,0835.9,5.00,000.00,020.5,019.6,000.0,028.8,021.8,10.1,0000.0,0006.34,0002.48,0002.05
2024-01-28 13:02:00,SystemResetWarning,0835.9,5.00,000.00,020.5,019.6,000.0,028.8,021.8,10.1,0000.0,0007.36,0002.46,0002.03
2024-01-28 13:03:00,SystemResetWarning,0835.9,5.00,000.00,020.5,019.6,000.0,028.8,021.8,10.1,0000.0,0007.56,0002.43,0002.00
2024-01-28 13:04:00,SystemResetWarning,0835.9,5.00,000.00,020.5,019.6,000.0,028.8,021.8,10.1,0000.0,0007.71,0002.42,0001.96
2024-01-28 13:05:00,SystemResetWarning,0835.9,5.00,000.00,020.5,019.6,000.0,028.8,021.8,10.1,0000.0,0007.70,0002.38,0001.93
2024-01-28 13:06:00,SystemResetWarning,0835.9,4.99,000.00,020.5,019.6,000.0,028.8,021.8,10.1,0000.0,0007.73,0002.38,0001.92
2024-01-28 13:07:00,SystemResetWarning,0835.9,5.00,000.00,020.5,019.6,000.0,028.8,021.8,10.1,0000.0,0007.77,0002.38,0001.90
2024-01-28 13:08:00,SystemResetWarning,0835.9,5.00,000.00,020.5,019.6,000.0,028.7,021.8,10.1,0000.0,0007.65,0002.36,0001.89
2024-01-28 13:09:00,SystemResetWarning,0835.9,5.00,000.00,020.5,019.6,000.0,028.7,021.7,10.2,0000.0,0006.69,0002.31,0001.89
2024-01-28 13:10:00,SystemResetWarning,0835.9,5.00,000.00,020.4,019.5,000.0,028.7,021.7,10.2,0000.0,0005.96,0002.30,0001.92
2024-01-28 13:11:00,SystemResetWarning,0836.0,5.00,000.00,020.4,019.5,000.0,028.7,021.7,10.2,0000.0,0005.14,0002.30,0001.95
2024-01-28 13:12:00,SystemResetWarning,0835.9,5.00,000.00,020.4,019.5,000.0,028.7,021.7,10.2,0000.0,0005.75,0002.36,0001.97
2024-01-28 13:13:00,SystemResetWarning,0836.0,5.00,000.00,020.4,019.5,000.0,028.7,021.7,10.1,0000.0,0004.85,0002.37,0001.99
2024-01-28 13:14:00,SystemResetWarning,0836.0,5.00,000.00,020.4,019.4,000.0,028.7,021.7,10.2,0000.0,0004.35,0002.36,0001.98
2024-01-28 13:15:00,SystemResetWarning,0836.0,5.00,000.00,020.4,019.4,000.0,028.7,021.7,10.2,0000.0,0003.86,0002.33,0001.96
2024-01-28 13:16:00,SystemResetWarning,0836.1,4.99,000.00,020.4,019.4,000.0,028.7,021.7,10.2,0000.0,0003.78,0002.31,0001.96
2024-01-28 13:17:00,SystemResetWarning,0836.1,5.00,000.00,020.4,019.4,000.0,028.7,021.7,10.3,0000.0,0003.81,0002.28,0001.95
2024-01-28 13:18:00,SystemResetWarning,0836.1,5.00,000.00,020.4,019.4,000.0,028.7,021.7,10.4,0000.0,0003.76,0002.27,0001.95
2024-01-28 13:19:00,SystemResetWarning,0836.1,5.00,000.00,020.4,019.3,000.0,028.7,021.7,10.6,0000.0,0003.77,0002.28,0001.96
2024-01-28 13:20:00,SystemResetWarning,0836.1,5.01,000.00,020.4,019.3,000.0,028.7,021.7,10.7,0000.0,0003.78,0002.30,0001.96
2024-01-28 13:21:00,SystemResetWarning,0836.1,5.01,000.00,020.4,019.3,000.0,028.7,021.7,10.8,0000.0,0004.66,0002.28,0001.94
2024-01-28 13:22:00,SystemResetWarning,0836.1,5.00,000.00,020.3,019.3,000.0,028.7,021.6,10.5,0000.0,0005.16,0002.28,0001.92
2024-01-28 13:23:00,SystemResetWarning,0836.1,5.00,000.00,020.3,019.3,000.0,028.7,021.7,10.6,0000.0,0004.41,0002.21,0001.90
2024-01-28 13:24:00,SystemResetWarning,0836.1,5.00,000.00,020.3,019.3,000.0,028.7,021.6,10.6,0000.0,0004.31,0002.21,0001.89
2024-01-28 13:25:00,SystemResetWarning,0836.2,5.00,000.00,020.3,019.3,000.0,028.7,021.6,10.8,0000.0,0004.35,0002.24,0001.91
2024-01-28 13:26:00,SystemResetWarning,0836.2,5.00,000.00,020.3,019.3,000.0,028.7,021.6,10.9,0000.0,0004.45,0002.28,0001.93
2024-01-28 13:27:00,SystemResetWarning,0836.2,4.99,000.00,020.3,019.3,000.0,028.7,021.6,11.1,0000.0,0004.46,0002.28,0001.94
2024-01-28 13:28:00,SystemResetWarning,0836.2,4.99,000.00,020.3,019.3,000.0,028.7,021.6,11.2,0000.0,0004.52,0002.32,0001.95
2024-01-28 13:29:00,SystemResetWarning,0836.2,5.01,000.00,020.3,019.3,000.0,028.6,021.6,11.3,0000.0,0004.58,0002.33,0001.96
2024-01-28 13:30:00,SystemResetWarning,0836.2,5.01,000.00,020.3,019.3,000.0,028.6,021.6,11.3,0000.0,0004.67,0002.35,0001.97
2024-01-28 13:31:00,SystemResetWarning,0836.3,4.99,000.00,020.3,019.3,000.0,028.6,021.6,11.2,0000.0,0004.60,0002.31,0001.96
2024-01-28 13:32:00,SystemResetWarning,0836.3,4.98,000.00,020.3,019.2,000.0,028.6,021.6,11.2,0000.0,0004.26,0002.30,0001.96
2024-01-28 13:33:00,SystemResetWarning,0836.2,5.00,000.00,020.3,019.2,000.0,028.6,021.6,11.4,0000.0,0003.12,0002.29,0001.96
2024-01-28 13:34:00,SystemResetWarning,0836.3,5.01,000.00,020.3,019.2,000.0,028.6,021.6,11.4,0000.0,0003.26,0002.31,0001.96
2024-01-28 13:35:00,SystemResetWarning,0836.2,5.00,000.00,020.3,019.2,000.0,028.6,021.6,11.3,0000.0,0003.62,0002.30,0001.95
2024-01-28 13:36:00,SystemResetWarning,0836.2,5.00,000.00,020.3,019.2,000.0,028.6,021.6,11.3,0000.0,0003.58,0002.25,0001.92
2024-01-28 13:37:00,SystemResetWarning,0836.2,5.00,000.00,020.3,019.2,000.0,028.6,021.6,11.3,0000.0,0003.47,0002.19,0001.90
2024-01-28 13:38:00,SystemResetWarning,0836.2,5.00,000.00,020.3,019.2,000.0,028.6,021.6,11.2,0000.0,0003.48,0002.18,0001.89
2024-01-28 13:39:00,SystemResetWarning,0836.3,5.00,000.00,020.2,019.2,000.0,028.6,021.6,11.1,0000.0,0005.00,0002.18,0001.88
2024-01-28 13:40:00,SystemResetWarning,0836.2,5.00,000.00,020.2,019.2,000.0,028.6,021.5,11.2,0000.0,0005.31,0002.23,0001.89
2024-01-28 13:41:00,SystemResetWarning,0836.3,5.00,000.00,020.2,019.2,000.0,028.6,021.5,11.3,0000.0,0005.23,0002.22,0001.88
2024-01-28 13:42:00,SystemResetWarning,0836.3,5.00,000.00,020.2,019.2,000.0,028.6,021.5,11.3,0000.0,0005.28,0002.23,0001.88
2024-01-28 13:43:00,SystemResetWarning,0836.4,5.00,000.00,020.2,019.2,000.0,028.6,021.5,11.3,0000.0,0005.34,0002.25,0001.89
2024-01-28 13:44:00,SystemResetWarning,0836.4,5.01,000.00,020.2,019.1,000.0,028.6,021.5,11.4,0000.0,0005.45,0002.24,0001.88
2024-01-28 13:45:00,SystemResetWarning,0836.4,5.01,000.00,020.2,019.1,000.0,028.6,021.5,11.4,0000.0,0005.53,0002.23,0001.86
2024-01-28 13:46:00,SystemResetWarning,0836.4,5.00,000.00,020.2,019.1,000.0,028.5,021.5,11.4,0000.0,0005.20,0002.25,0001.86
2024-01-28 13:47:00,SystemResetWarning,0836.4,5.00,000.00,020.2,019.1,000.0,028.5,021.4,11.3,0000.0,0005.07,0002.23,0001.85
2024-01-28 13:48:00,SystemResetWarning,0836.4,4.99,000.00,020.2,019.1,000.0,028.5,021.4,11.3,0000.0,0005.08,0002.24,0001.86
2024-01-28 13:49:00,SystemResetWarning,0836.4,5.00,000.00,020.2,019.0,000.0,028.5,021.4,11.4,0000.0,0005.08,0002.24,0001.86
2024-01-28 13:50:00,SystemResetWarning,0836.4,5.00,000.00,020.2,019.0,000.0,028.5,021.4,11.4,0000.0,0003.92,0002.25,0001.85
2024-01-28 13:51:00,SystemResetWarning,0836.4,5.00,000.00,020.1,019.0,000.0,028.5,021.4,11.3,0000.0,0003.28,0002.20,0001.83
2024-01-28 13:52:00,SystemResetWarning,0836.4,5.00,000.00,020.1,019.0,000.0,028.5,021.4,11.2,0000.0,0003.27,0002.17,0001.80
2024-01-28 13:53:00,SystemResetWarning,0836.3,5.01,000.00,020.1,019.0,000.0,028.5,021.4,11.2,0000.0,0003.20,0002.13,0001.76
2024-01-28 13:54:00,SystemResetWarning,0836.3,5.01,000.00,020.1,019.0,000.0,028.5,021.4,11.2,0000.0,0003.13,0002.07,0001.71
2024-01-28 13:55:00,SystemResetWarning,0836.4,5.00,000.00,020.1,019.0,000.0,028.5,021.4,11.1,0000.0,0002.94,0002.02,0001.69
2024-01-28 13:56:00,SystemResetWarning,0836.4,5.00,000.00,020.1,019.0,000.0,028.5,021.4,11.2,0000.0,0002.75,0001.98,0001.67
2024-01-28 13:57:00,SystemResetWarning,0836.4,5.00,000.00,020.1,019.0,000.0,028.5,021.4,11.3,0000.0,0002.72,0001.95,0001.65
2024-01-28 13:58:00,SystemResetWarning,0836.4,5.00,000.00,020.1,019.0,000.0,028.4,021.4,11.4,0000.0,0002.67,0001.90,0001.61
2024-01-28 13:59:00,SystemResetWarning,0836.4,5.00,000.00,020.1,019.0,000.0,028.4,021.4,11.5,0000.0,0002.64,0001.87,0001.56
